World > North America > United States > Missouri

Glensted, Missouri Regional Weather

Lat: 38.52N, Lon: 92.86W
Wx Zone: MOZ056Web Search
Glensted Weather Warning NWS WEATHER ALERT FOR THE GLENSTED, MO AREA - Issued: 813 PM CDT Tue Apr 13 2021 Glensted Weather Warning  

Our weather pages are very print friendly and they make great conversation starters.

Feedback


°F Click to change Glensted hourly weather to Imperial units.Click to change Glensted hourly weather to Metric units. °C
Glensted Weather Map
UTC Time: 4/14/2021, 05:08
Your Time:

Glensted, MO Regional Weather

Expires:202104140600;;521863
ASUS43 KLSX 140507
RWRMO 

WEATHER SUMMARY FOR MISSOURI
NATIONAL WEATHER SERVICE SPRINGFIELD MO
1200 AM CDT WED APR 14 2021

NOTE: "FAIR" INDICATES FEW OR NO CLOUDS BELOW 12,000 FEET WITH NO
       SIGNIFICANT WEATHER AND/OR OBSTRUCTIONS TO VISIBILITY.
       CURRENT SKY AND/OR WEATHER CONDITIONS ARE NOT AVAILABLE FOR
       CHILLICOTHE AND FARMINGTON.


MOZ032>034-039>042-045>050-055>058-069>072-140600-
...CENTRAL MISSOURI...  
  
CITY           SKY/WX    TMP DP  RH WIND       PRES   REMARKS
COLUMBIA       CLOUDY    54  33  45 W5        30.18R                  
JEFFERSON CITY CLOUDY    56  39  53 NW3       30.18S                  
ROLLA          CLOUDY    52  33  48 NW6       30.17S                  
SEDALIA        PTCLDY    51  38  60 N7        30.21R                  
WHITEMAN AFB   MOCLDY    49  33  54 CALM      30.17R                  
WARRENSBURG    PTCLDY    50  32  50 CALM      30.21R                  
OSAGE BEACH    MOCLDY    52  34  50 N5        30.18F                  
               
$$

SKY/WX - Weather  TMP - Temperature  DP - Dew Point  RH - Relative Humidity
WIND - Wind Direction/Speed PRES - Barometric Pressure VSB - Visibility
WCI - Wind Chill Index E13G22 Wind - East Wind 13 mph/Gusts of 22 mph